Location: Lake Arresoe
(56.0000°N, 12.5000°E)
Time: 06:41:03
(UTC+02:00)

Cosmos 1674 - Visible Passes

Search period start: 21 October 2018 00:00
Search period end: 30 October 2018 23:00
Orbit: 497 x 519 km, 82.5° (Epoch: 20 October)

Date Brightness Start Highest point End Pass type
(mag) Time Alt. Az. Time Alt. Az. Time Alt. Az.
21 Oct 5.3 05:40:06 10° SE 05:43:10 23° E 05:46:14 10° NE visible
21 Oct 3.0 07:14:47 10° SW 07:18:30 45° WNW 07:22:15 10° N visible
21 Oct 6.0 18:37:48 10° NW 18:39:53 14° W 18:41:59 10° WSW visible
22 Oct 5.6 05:23:13 10° SE 05:25:57 19° E 05:28:43 10° NE visible
22 Oct 2.8 06:57:22 10° SSW 07:01:11 55° WNW 07:04:59 10° N visible
23 Oct 5.8 05:06:24 10° ESE 05:08:46 16° E 05:11:07 10° NE visible
23 Oct 2.6 06:40:01 10° SSW 06:43:51 68° WNW 06:47:44 10° N visible
24 Oct 6.0 04:49:45 10° ESE 04:51:35 13° E 04:53:24 10° NE visible
24 Oct 2.6 06:22:41 10° SSW 06:26:33 84° WNW 06:30:26 10° N visible
25 Oct 6.1 04:33:29 10° E 04:34:24 11° E 04:35:19 10° ENE visible
25 Oct 2.8 06:05:24 10° S 06:09:15 79° E 06:13:07 10° NNE visible
26 Oct 3.1 05:48:09 10° S 05:51:58 64° E 05:55:48 10° NNE visible
26 Oct 4.2 07:25:13 10° WSW 07:27:57 18° WNW 07:30:41 10° NNW visible
27 Oct 3.5 05:30:57 10° S 05:34:42 51° E 05:38:27 10° NNE visible
27 Oct 4.0 07:07:33 10° WSW 07:10:33 21° WNW 07:13:34 10° NNW visible
28 Oct 3.9 04:15:04 19° SSE 04:17:26 41° E 04:21:04 10° NNE visible
28 Oct 3.7 05:50:01 11° WSW 05:53:10 25° WNW 05:56:24 10° N visible
29 Oct 4.3 03:59:14 29° ESE 04:00:10 34° E 04:03:40 10° NNE visible
29 Oct 3.5 05:34:10 22° WSW 05:35:46 30° WNW 05:39:13 10° N visible
30 Oct 4.7 03:43:05 28° E 03:43:05 28° E 03:46:14 10° NNE visible
30 Oct 3.2 05:18:00 35° W 05:18:25 36° WNW 05:21:59 10° N visible
